User: anonymous   Login
Location: Goheenville
(40.9070°N, 79.3720°W)
Time: 22:13:54
(UTC-04:00)
Language:

Cosmos 1727 Rocket - Orbit

View from above orbital plane
View from above orbital plane
View from above satellite
View from above satellite

Ground track
Ground track

The orbit data is extracted from the following two-line orbital elements,

1 16511U 86008B   15238.76983036 +.00000046 +00000-0 +31840-4 0  9997
2 16511 082.9482 349.6735 0023429 330.3794 194.4190 13.75800331485203
Epoch (UTC): 26 August 2015 18:28:33
Eccentricity: 0.0023429
inclination: 82.9482°
perigee height: 961 km
apogee height: 996 km
right ascension of ascending node: 349.6735°
argument of perigee: 330.3794°
revolutions per day: 13.75800331
mean anomaly at epoch: 194.4190°
orbit number at epoch: 48520

The dashed part of the orbit path shows where the satellite is in the earth's shadow,  

DLR